When you browse on this site, cookies collect data to enhance your experience and personalize the content and advertising you see.
Visit our Privacy Policy to learn more. By continuing to use the site, you agree to this use of cookies and data.
  • In Österreich
  • Länderverzeichnis
  • Für 7 Tage
  • Wassertemperatur
  • Satellitenkarten
  • Wetterkarte
  • News
  • Widgets
  • user-avatar
    Anmelden

    Stündliche Wetter Punta Cana

    Heute, 21 November, Mittwoch

    Zeit Temperatur Niederschläge Wind Luftdruck Luftfeuchtigkeit
    00:00 +26°C° 0.1 mm 3 m/S 763 mmHg 90%
    01:00 +26°C° 0.1 mm 3 m/S 763 mmHg 91%
    02:00 +26°C° 0.1 mm 3 m/S 763 mmHg 91%
    03:00 +26°C° 0.1 mm 3 m/S 762 mmHg 91%
    04:00 +26°C° 0.1 mm 3 m/S 762 mmHg 91%
    05:00 +27°C° 0.1 mm 3 m/S 763 mmHg 88%
    06:00 +28°C° 0.1 mm 4 m/S 763 mmHg 85%
    07:00 +28°C° 0.1 mm 4 m/S 763 mmHg 82%
    08:00 +30°C° 0.1 mm 4 m/S 763 mmHg 75%
    09:00 +32°C° 0.1 mm 5 m/S 764 mmHg 68%
    10:00 +33°C° 0.1 mm 5 m/S 764 mmHg 61%
    11:00 +33°C° 0.1 mm 5 m/S 763 mmHg 61%
    12:00 +33°C° 0.1 mm 5 m/S 763 mmHg 62%
    13:00 +33°C° 0.1 mm 5 m/S 762 mmHg 62%
    14:00 +33°C° 0 mm 5 m/S 762 mmHg 65%
    15:00 +32°C° 0 mm 5 m/S 762 mmHg 68%
    16:00 +30°C° 0 mm 4 m/S 761 mmHg 71%
    17:00 +29°C° 0 mm 4 m/S 762 mmHg 75%
    18:00 +28°C° 0 mm 4 m/S 762 mmHg 80%
    19:00 +27°C° 0 mm 4 m/S 762 mmHg 84%
    20:00 +27°C° 0 mm 5 m/S 763 mmHg 84%
    21:00 +27°C° 0 mm 5 m/S 763 mmHg 85%
    22:00 +26°C° 0 mm 5 m/S 763 mmHg 85%
    23:00 +26°C° 0 mm 5 m/S 762 mmHg 86%

    Morgen, 22 November, Donnerstag

    Zeit Temperatur Niederschläge Wind Luftdruck Luftfeuchtigkeit
    00:00 +26°C° 0 mm 5 m/S 762 mmHg 87%
    01:00 +26°C° 0 mm 5 m/S 762 mmHg 88%
    02:00 +26°C° 0 mm 4 m/S 762 mmHg 87%
    03:00 +26°C° 0 mm 4 m/S 762 mmHg 86%
    04:00 +26°C° 0 mm 4 m/S 762 mmHg 85%
    05:00 +27°C° 0 mm 3 m/S 762 mmHg 83%
    06:00 +27°C° 0 mm 3 m/S 762 mmHg 81%
    07:00 +28°C° 0 mm 3 m/S 763 mmHg 79%
    08:00 +29°C° 0 mm 3 m/S 763 mmHg 72%
    09:00 +30°C° 0 mm 4 m/S 763 mmHg 65%
    10:00 +33°C° 0 mm 4 m/S 763 mmHg 59%
    11:00 +33°C° 0 mm 4 m/S 763 mmHg 58%
    12:00 +33°C° 0 mm 4 m/S 762 mmHg 56%
    13:00 +33°C° 0 mm 4 m/S 761 mmHg 55%
    14:00 +32°C° 0 mm 4 m/S 761 mmHg 58%
    15:00 +32°C° 0 mm 4 m/S 761 mmHg 62%
    16:00 +30°C° 0 mm 3 m/S 760 mmHg 65%
    17:00 +29°C° 0 mm 4 m/S 761 mmHg 71%
    18:00 +28°C° 0 mm 4 m/S 761 mmHg 77%
    19:00 +26°C° 0 mm 4 m/S 762 mmHg 82%
    20:00 +26°C° 0 mm 4 m/S 762 mmHg 84%
    21:00 +26°C° 0 mm 4 m/S 762 mmHg 85%
    22:00 +26°C° 0 mm 4 m/S 762 mmHg 87%
    23:00 +26°C° 0 mm 4 m/S 762 mmHg 87%

    übermorgen, 23 November, Freitag

    Zeit Temperatur Niederschläge Wind Luftdruck Luftfeuchtigkeit
    00:00 +26°C° 0 mm 4 m/S 761 mmHg 88%
    01:00 +26°C° 0 mm 4 m/S 761 mmHg 89%
    02:00 +26°C° 0 mm 4 m/S 761 mmHg 88%
    03:00 +26°C° 0 mm 4 m/S 761 mmHg 86%
    04:00 +26°C° 0 mm 3 m/S 760 mmHg 85%
    05:00 +26°C° 0 mm 3 m/S 761 mmHg 82%
    06:00 +27°C° 0 mm 3 m/S 761 mmHg 80%
    07:00 +27°C° 0 mm 3 m/S 761 mmHg 77%
    08:00 +29°C° 0 mm 3 m/S 762 mmHg 69%
    09:00 +30°C° 0 mm 3 m/S 762 mmHg 61%
    10:00 +31°C° 0 mm 3 m/S 762 mmHg 53%
    11:00 +33°C° 0 mm 3 m/S 761 mmHg 52%
    12:00 +33°C° 0 mm 3 m/S 761 mmHg 52%
    13:00 +33°C° 0 mm 3 m/S 760 mmHg 51%
    14:00 +33°C° 0 mm 3 m/S 760 mmHg 56%
    15:00 +31°C° 0 mm 3 m/S 759 mmHg 60%
    16:00 +30°C° 0 mm 3 m/S 759 mmHg 64%
    17:00 +29°C° 0.1 mm 3 m/S 760 mmHg 70%
    18:00 +28°C° 0.1 mm 3 m/S 760 mmHg 75%
    19:00 +27°C° 0.1 mm 3 m/S 761 mmHg 80%
    20:00 +27°C° 0 mm 3 m/S 761 mmHg 82%
    21:00 +26°C° 0 mm 3 m/S 761 mmHg 84%
    22:00 +26°C° 0 mm 3 m/S 761 mmHg 85%
    23:00 +26°C° 0 mm 3 m/S 761 mmHg 86%

    24 November, Samstag

    Zeit Temperatur Niederschläge Wind Luftdruck Luftfeuchtigkeit
    00:00 +26°C° 0 mm 3 m/S 761 mmHg 86%
    01:00 +26°C° 0 mm 3 m/S 760 mmHg 86%
    02:00 +26°C° 0 mm 3 m/S 760 mmHg 87%
    03:00 +26°C° 0 mm 2 m/S 760 mmHg 87%
    04:00 +26°C° 0 mm 2 m/S 760 mmHg 87%
    05:00 +26°C° 0 mm 2 m/S 761 mmHg 83%
    06:00 +27°C° 0 mm 3 m/S 761 mmHg 79%
    07:00 +28°C° 0 mm 3 m/S 762 mmHg 75%
    08:00 +29°C° 0 mm 3 m/S 762 mmHg 68%
    09:00 +31°C° 0 mm 3 m/S 762 mmHg 62%
    10:00 +33°C° 0 mm 3 m/S 762 mmHg 55%
    11:00 +33°C° 0 mm 3 m/S 761 mmHg 53%
    12:00 +34°C° 0 mm 3 m/S 761 mmHg 52%
    13:00 +34°C° 0 mm 3 m/S 760 mmHg 51%
    14:00 +33°C° 0 mm 3 m/S 760 mmHg 54%
    15:00 +31°C° 0 mm 3 m/S 760 mmHg 58%
    16:00 +30°C° 0 mm 3 m/S 760 mmHg 62%
    17:00 +29°C° 0 mm 3 m/S 760 mmHg 67%
    18:00 +28°C° 0 mm 3 m/S 761 mmHg 72%
    19:00 +27°C° 0 mm 4 m/S 761 mmHg 78%
    20:00 +27°C° 0 mm 3 m/S 761 mmHg 80%
    21:00 +27°C° 0 mm 3 m/S 761 mmHg 82%
    22:00 +26°C° 0 mm 3 m/S 761 mmHg 85%
    23:00 +26°C° 0 mm 3 m/S 761 mmHg 86%

    25 November, Sonntag

    Zeit Temperatur Niederschläge Wind Luftdruck Luftfeuchtigkeit
    00:00 +26°C° 0 mm 2 m/S 761 mmHg 87%
    01:00 +26°C° 0 mm 2 m/S 761 mmHg 88%
    02:00 +26°C° 0 mm 2 m/S 761 mmHg 89%
    03:00 +26°C° 0 mm 2 m/S 761 mmHg 90%
    04:00 +26°C° 0 mm 2 m/S 761 mmHg 90%
    05:00 +26°C° 0 mm 2 m/S 761 mmHg 88%
    06:00 +27°C° 0 mm 2 m/S 761 mmHg 85%
    07:00 +28°C° 0 mm 2 m/S 762 mmHg 82%
    08:00 +29°C° 0 mm 3 m/S 762 mmHg 74%
    09:00 +31°C° 0 mm 3 m/S 762 mmHg 67%
    10:00 +33°C° 0 mm 3 m/S 763 mmHg 59%
    11:00 +33°C° 0 mm 3 m/S 762 mmHg 55%
    12:00 +34°C° 0 mm 3 m/S 761 mmHg 51%
    13:00 +34°C° 0 mm 3 m/S 761 mmHg 47%
    14:00 +33°C° 0 mm 3 m/S 760 mmHg 52%
    15:00 +31°C° 0 mm 3 m/S 760 mmHg 58%
    16:00 +30°C° 0 mm 3 m/S 760 mmHg 63%
    17:00 +29°C° 0 mm 4 m/S 761 mmHg 71%
    18:00 +28°C° 0 mm 4 m/S 761 mmHg 79%
    19:00 +27°C° 0 mm 4 m/S 762 mmHg 87%
    20:00 +27°C° 0 mm 4 m/S 762 mmHg 88%
    21:00 +27°C° 0 mm 4 m/S 762 mmHg 89%
    22:00 +27°C° 0 mm 5 m/S 762 mmHg 90%
    23:00 +27°C° 0 mm 5 m/S 762 mmHg 90%

    26 November, Montag

    Zeit Temperatur Niederschläge Wind Luftdruck Luftfeuchtigkeit
    00:00 +27°C° 0 mm 5 m/S 761 mmHg 90%
    01:00 +27°C° 0 mm 4 m/S 761 mmHg 90%
    02:00 +27°C° 0 mm 4 m/S 761 mmHg 90%
    03:00 +26°C° 0 mm 4 m/S 761 mmHg 90%
    04:00 +26°C° 0 mm 4 m/S 761 mmHg 90%
    05:00 +27°C° 0 mm 4 m/S 761 mmHg 88%
    06:00 +28°C° 0 mm 4 m/S 762 mmHg 86%
    07:00 +28°C° 0 mm 4 m/S 762 mmHg 84%
    08:00 +29°C° 0.1 mm 4 m/S 762 mmHg 79%
    09:00 +30°C° 0.1 mm 4 m/S 763 mmHg 74%
    10:00 +32°C° 0.1 mm 4 m/S 763 mmHg 69%
    11:00 +33°C° 0.1 mm 4 m/S 762 mmHg 66%
    12:00 +33°C° 0.1 mm 4 m/S 761 mmHg 62%
    13:00 +34°C° 0.1 mm 3 m/S 761 mmHg 59%
    14:00 +33°C° 0 mm 4 m/S 761 mmHg 63%
    15:00 +32°C° 0 mm 4 m/S 761 mmHg 67%
    16:00 +30°C° 0 mm 4 m/S 760 mmHg 71%
    17:00 +29°C° 0 mm 4 m/S 761 mmHg 77%
    18:00 +28°C° 0 mm 4 m/S 761 mmHg 82%
    19:00 +27°C° 0 mm 5 m/S 762 mmHg 88%
    20:00 +27°C° 0 mm 5 m/S 762 mmHg 88%
    21:00 +27°C° 0 mm 5 m/S 762 mmHg 88%
    22:00 +27°C° 0 mm 5 m/S 762 mmHg 88%
    23:00 +27°C° 0 mm 5 m/S 761 mmHg 88%
    Mehr zeigen